Location: Cañada de la Miga
(34.7595°N, 106.2317°W)
Time: 12:40:39
(UTC+00:00)

A-11 Canister half - Pass Details

Date: 05 December 2021
Orbit: 1516 x 1684 km, 47.2° (Epoch: 26 January)

Event Time Altitude Azimuth Distance (km) Brightness Sun altitude
Rises 12:37:26 0° 222° (SW) 4,698 11.3 -16.1°
Reaches altitude 10° 12:40:28 10° 220° (SW) 3,735 10.8 -15.5°
Maximum altitude 12:49:53 71° 139° (SE) 1,671 9.3 -13.7°
Drops below altitude 10° 12:59:42 10° 57° (ENE) 3,880 11.7 -11.8°
Sets 13:02:53 0° 56° (NE) 4,889 12.2 -11.2°
